GLOBALSTAR M097

Last updated on Sat Sep 05 2026 00:03:16 GMT+0000 (Coordinated Universal Time)

1 39072U 13005A 26247.58432402 -.00000109 00000+0 -30941-4 0 9991 2 39072 52.0069 1.6409 0000778 110.1511 249.9439 12.62271260626932
UTC large
Height (km)
Speed (km/s)
/
Latitude / Longitude
Inclination (degrees)
Orbital Period (minutes)
Azimuth
Elevation
Range (km)
Doppler Factor

Next 0 passes for location: London (51.5072 / 0.1276)

No passes found over London.
GLOBALSTAR M097